Nashville, TN

8:47 PM CDT on July 24, 2017 (GMT -0500)
Nashville International

Weather History for KBNA - February, 2014

Change the Weather History Date:

Friday, February 28, 2014

  Actual Average Record
Temperature  
Mean Temperature 38 °F 45 °F  
Max Temperature 55 °F 56 °F 78 °F (1918)
Min Temperature 21 °F 35 °F 11 °F (1888)
Degree Days  
Heating Degree Days 27    
Month to date heating degree days 714  
Since 1 July heating degree days 3185  
Cooling Degree Days 0    
Month to date cooling degree days 0  
Year to date cooling degree days 0  
Moisture  
Dew Point 12 °F    
Average Humidity 37    
Maximum Humidity 59    
Minimum Humidity 15    
Precipitation  
Precipitation T in 0.14 in 1.67 in (1987)
Month to date precipitation 5.09 3.94  
Year to date precipitation 7.70 7.69  
Snow  
Snow 0.00 in - 4.20 in (1964)
Month to date snowfall 0.1  
Since 1 July snowfall 1.4  
Snow Depth 0.00 in    
Sea Level Pressure  
Sea Level Pressure 30.11 in    
Wind  
Wind Speed 5 mph (SE)    
Max Wind Speed 16 mph    
Max Gust Speed 22 mph    
Visibility 10 miles    
Events Rain    
T = Trace of Precipitation, MM = Missing Value Source: NWS Daily Summary

Daily Weather History Graph

Daily Weather History Graph

Search for Another Location

Airport or City:

Trip Planner

Search our weather history database for the weather conditions in past years. The results will help you decide how hot, cold, wet, or windy it might be!

Date:

Astronomy

Feb. 28, 2014 Rise Set
Actual Time 6:18 AM CST 5:40 PM CST
Civil Twilight 5:52 AM CST 6:06 PM CST
Nautical Twilight 5:22 AM CST 6:36 PM CST
Astronomical Twilight 4:53 AM CST 7:06 PM CST
Moon 5:32 AM CST (2/28) 5:16 PM CST (2/28)
Length of Visible Light 12h 14m
Length of Day
11h 22m
Waning Crescent, 1% of the Moon is Illuminated
Feb 28
Waning Crescent
Mar 1
New
Mar 8
First Quarter
Mar 16
Full
Mar 23
Last Quarter

Hourly Weather History & Observations

Time (CST) Temp. Windchill Dew Point Humidity Pressure Visibility Wind Dir Wind Speed Gust Speed Precip Events Conditions
12:53 AM 23.0 °F 17.0 °F 7.0 °F 50% 30.13 in 10.0 mi NNE 4.6 mph - N/A   Clear
1:53 AM 23.0 °F - 7.0 °F 50% 30.13 in 10.0 mi Calm Calm - N/A   Clear
2:53 AM 23.0 °F 17.0 °F 8.1 °F 53% 30.11 in 10.0 mi ENE 4.6 mph - N/A   Clear
3:53 AM 21.9 °F 17.2 °F 8.1 °F 55% 30.12 in 10.0 mi NE 3.5 mph - N/A   Clear
4:53 AM 21.9 °F 15.7 °F 7.0 °F 53% 30.15 in 10.0 mi North 4.6 mph - N/A   Clear
5:53 AM 21.9 °F 17.2 °F 9.0 °F 58% 30.17 in 10.0 mi NE 3.5 mph - N/A   Clear
6:53 AM 23.0 °F - 10.0 °F 58% 30.17 in 10.0 mi Calm Calm - N/A   Scattered Clouds
7:53 AM 27.0 °F 23.0 °F 9.0 °F 47% 30.19 in 10.0 mi East 3.5 mph - N/A   Mostly Cloudy
8:53 AM 32.0 °F 28.7 °F 8.1 °F 37% 30.19 in 10.0 mi East 3.5 mph - N/A   Overcast
9:53 AM 37.0 °F 32.4 °F 10.0 °F 33% 30.18 in 10.0 mi SE 5.8 mph - N/A   Mostly Cloudy
10:53 AM 42.1 °F 35.2 °F 8.1 °F 25% 30.15 in 10.0 mi SE 12.7 mph - N/A   Mostly Cloudy
11:53 AM 46.0 °F 42.5 °F 8.1 °F 21% 30.13 in 10.0 mi ESE 6.9 mph - N/A   Scattered Clouds
12:53 PM 50.0 °F - 6.1 °F 17% 30.10 in 10.0 mi SSE 3.5 mph - N/A   Scattered Clouds
1:53 PM 52.0 °F - 7.0 °F 16% 30.07 in 10.0 mi East 6.9 mph - N/A   Mostly Cloudy
2:53 PM 53.1 °F - 6.1 °F 15% 30.05 in 10.0 mi Variable 3.5 mph - N/A   Mostly Cloudy
3:53 PM 55.0 °F - 8.1 °F 15% 30.03 in 10.0 mi South 9.2 mph - N/A   Scattered Clouds
4:53 PM 52.0 °F - 8.1 °F 17% 30.03 in 10.0 mi South 6.9 mph - N/A   Scattered Clouds
5:53 PM 51.1 °F - 10.9 °F 20% 30.03 in 10.0 mi South 4.6 mph - N/A   Overcast
6:53 PM 51.1 °F - 12.9 °F 22% 30.04 in 10.0 mi South 6.9 mph - N/A   Overcast
7:53 PM 50.0 °F - 15.1 °F 25% 30.05 in 10.0 mi South 9.2 mph - N/A   Overcast
8:53 PM 50.0 °F - 19.0 °F 29% 30.07 in 10.0 mi SSW 8.1 mph - 0.00 in Rain Light Rain
9:53 PM 46.9 °F - 27.0 °F 46% 30.12 in 10.0 mi SSW 8.1 mph - 0.00 in Rain Light Rain
10:53 PM 45.0 °F 42.6 °F 33.1 °F 63% 30.12 in 10.0 mi SSE 4.6 mph - 0.00 in   Overcast
11:53 PM 45.0 °F 41.8 °F 34.0 °F 65% 30.12 in 10.0 mi South 5.8 mph - N/A   Overcast